Regional Weather Roundup
Issued by NWS Goodland, KS

Home | Current Version | Previous Version | Text Only | Print | Product List | Glossary Off
Versions: 1 2 3 4 5 6 7 8 9 10 11 12 13 14 15 16 17 18 19 20 21 22 23 24 25 26 27 28 29 30 31 32 33 34 35 36 37 38 39 40 41 42 43 44 45 46 47 48 49 50

000
ASUS43 KGLD 230608
RWRGLD

GOODLAND FORECAST AREA HOURLY WEATHER ROUNDUP
NATIONAL WEATHER SERVICE GOODLAND KS
1200 AM MDT WED APR 23 2014

...OFFICIAL OBSERVATIONS...

CITY           SKY/WX    TMP DP  RH WIND       PRES   REMARKS
GOODLAND KS    MOCLDY    57  48  72 S20       29.73F
HILL CITY KS   FAIR      60  38  43 SE15G23   29.80F
IMPERIAL NEB   PTCLDY    63  45  51 S23G32    29.68F
MCCOOK NEB     MOCLDY    63  36  36 S28G41    29.72F
AKRON CO       CLOUDY    61  42  49 S21G31    29.65F
BURLINGTON CO  CLOUDY    57  46  66 S22       29.71F
LIMON CO       MOCLDY    51  39  63 SE5       29.73F
$$

...UNOFFICIAL OBSERVATIONS...

CITY           SKY/WX    TMP DP  RH WIND       PRES   REMARKS
COLBY KS       CLEAR     59  45  58 SE24G35   29.75F
LENORA KS        N/A     60  32  34 SE24        N/A
LEOTI KS         N/A     60  32  34 SE12        N/A
NORTON KS      PTCLDY    61  32  33 SE23G32   29.76F
OBERLIN KS     FAIR      61  34  36 S26G35    29.73F
SHARON SPRINGS   N/A     60  48  64 S20G29      N/A
ST FRANCIS KS  PTCLDY    59  45  58 SE29G37   29.67F
WAKEENEY KS      N/A     58  34  40 MISG        N/A
KIT CARSON CO    N/A     60  42  51 MISG        N/A
WRAY CO        FAIR      61  46  59 S21G30    29.66
$$



USA.gov is the U.S. government's official web portal to all federal, state and local government web resources and services.